Flag for U.S.A. Weather past 2 weeks in Fremont, California, U.S.A.

Now
71 °F

Sunny.


Feels Like: 74 °F
Forecast: 44 / 65 °F
Wind: No wind

Location: Moffett Field

Current Time: Jan 31, 2015 at 1:23:47 PM

Latest Report: Jan 31, 2015 at 12:56 PM


Visibility: 10 mi

Pressure: 29.97 "Hg

Humidity: 19%

Dew point: 27 °F

Location of FremontLocation

Historic Weather in Fremont — Graph

°F

Fremont temperature yesterday

Maximum temperature yesterday: 64 °F (at 1:56 PM)
Minimum temperature yesterday: 49 °F (at 4:56 AM)
Average temperature yesterday: 55 °F

Past Weeks' High & Low Weather Summary

 TemperatureHumidityPressure
High69 °F (Jan 24, 1:56 PM)97% (Jan 19, 5:56 AM)30.38 "Hg (Jan 19, 5:56 AM)
Low41 °F (Jan 23, 5:56 AM)20% (Jan 31, 11:56 AM)29.91 "Hg (Jan 30, 3:56 PM)
Average54 °F73%30.17 "Hg
* Reported Jan 16 11:56 AM — Jan 31 11:56 AM, Fremont, Weather by CustomWeather, © 2014

Note: Actual official high and low records may vary slightly from our data, if they occured in-between our weather recording intervals... More about our weather records

Advertising

Fremont weather history for previous 24 hours

 ConditionsComfort  
Time TempWeatherWind HumidityBarometerVisibility
11:56 AM
Jan 31
68 °FSunny.No wind20%30.00 "Hg10 mi
10:56 AM67 °FSunny.5 mph21%30.01 "Hg10 mi
9:56 AM64 °FSunny.No wind26%30.01 "Hg10 mi
8:56 AM59 °FSunny.5 mph46%30.00 "Hg10 mi
7:56 AM50 °FSunny.3 mph66%29.97 "Hg10 mi
6:56 AM47 °FClear.3 mph74%29.96 "Hg10 mi
5:56 AM46 °FClear.No wind83%29.93 "Hg10 mi
4:56 AM45 °FClear.No wind90%29.93 "Hg10 mi
3:56 AM47 °FClear.3 mph90%29.93 "Hg10 mi
2:56 AM48 °FClear.No wind89%29.93 "Hg10 mi
1:56 AM47 °FClear.No wind90%29.93 "Hg10 mi
12:56 AM48 °FClear.No wind86%29.93 "Hg10 mi
11:56 PM
Jan 30
50 °FClear.No wind86%29.94 "Hg10 mi
10:56 PM51 °FClear.No wind86%29.95 "Hg10 mi
9:56 PM52 °FClear.No wind86%29.95 "Hg10 mi
8:56 PM53 °FClear.No wind86%29.94 "Hg10 mi
7:56 PM54 °FClear.No wind83%29.94 "Hg10 mi
6:56 PM56 °FClear.No wind81%29.95 "Hg10 mi
5:56 PM56 °FClear.7 mph81%29.93 "Hg10 mi
4:56 PM59 °FSunny.7 mph75%29.92 "Hg10 mi
3:56 PM62 °FSunny.8 mph67%29.91 "Hg10 mi
2:56 PM64 °FSunny.8 mph61%29.92 "Hg10 mi
1:56 PM64 °FSunny.6 mph61%29.93 "Hg10 mi
Weather by CustomWeather, © 2014

See weather overviewHow to use our weather pages